Date,TemperatureHighF,TemperatureAvgF,TemperatureLowF,DewpointHighF,DewpointAvgF,DewpointLowF,HumidityHigh,HumidityAvg,HumidityLow,PressureMaxIn,PressureMinIn,WindSpeedMaxMPH,WindSpeedAvgMPH,GustSpeedMaxMPH,PrecipitationSumIn
2013-1-1,39.2,33.2,28.4,33.2,29.1,25.3,89,85,75,30.50,30.36,10,1,10,0.00
2013-1-2,43.5,34.7,30.2,32.9,27.8,21.7,89,76,53,30.36,30.19,10,1,10,0.00
2013-1-3,31.5,27.1,0.0,25.1,21.6,0.0,77,66,77,30.20,30.09,15,3,16,0.00
2013-1-4,47.0,19.8,0.0,42.0,17.8,0.0,87,38,81,30.29,30.16,22,4,22,0.00
2013-1-5,44.6,42.5,40.2,38.5,35.1,32.4,87,75,65,30.20,30.11,21,4,21,0.12
2013-1-6,44.3,41.4,39.3,38.7,37.0,35.7,87,84,75,30.18,29.98,19,7,21,0.02
2013-1-7,49.7,45.9,40.6,45.0,41.3,36.7,92,84,78,30.15,29.78,32,10,32,0.02
2013-1-8,50.7,46.2,41.5,46.9,42.3,37.5,91,86,80,30.15,29.72,42,8,42,0.58
2013-1-9,49.0,40.6,36.2,45.9,37.0,32.8,90,87,80,29.94,29.66,32,6,32,1.03
2013-1-10,37.9,35.2,30.7,33.4,31.3,25.8,92,86,81,30.12,29.93,12,2,12,0.02
2013-1-11,33.9,30.6,28.0,28.3,24.9,20.7,89,80,69,30.33,30.11,12,1,12,0.00
2013-1-12,34.9,29.4,26.2,27.5,24.5,22.4,90,82,66,30.45,30.32,10,1,10,0.00
2013-1-13,34.8,30.0,26.2,28.2,25.4,23.3,90,83,67,30.50,30.44,6,0,6,0.00
2013-1-14,36.9,34.4,32.2,31.4,28.3,25.0,85,78,70,30.57,30.47,9,2,9,0.00
2013-1-15,41.4,35.7,31.5,33.8,30.1,27.4,88,80,65,30.70,30.56,11,1,11,0.00
2013-1-16,40.6,33.8,28.6,33.0,29.4,25.8,90,84,71,30.68,30.51,13,1,13,0.00
2013-1-17,37.1,33.8,28.8,34.4,30.9,26.0,90,89,86,30.53,30.30,6,0,6,0.00
2013-1-18,36.9,34.3,31.6,34.5,31.8,29.0,91,90,90,30.35,30.26,9,1,9,0.01
2013-1-19,35.2,33.6,31.8,32.6,31.0,29.4,91,90,89,30.39,30.34,7,1,8,0.00
2013-1-20,39.3,35.3,32.2,35.6,32.4,29.6,91,89,83,30.39,30.27,12,1,12,0.00
2013-1-21,36.5,34.2,31.7,34.1,31.5,28.8,91,90,88,30.28,30.14,10,1,11,0.00
2013-1-22,39.3,35.0,31.1,35.5,31.9,28.5,91,88,82,30.14,29.90,8,0,8,0.00
2013-1-23,41.8,40.6,38.7,38.6,35.8,30.7,89,83,68,30.13,29.84,19,4,19,0.28
2013-1-24,44.2,41.5,39.7,39.1,37.0,34.8,89,84,71,30.20,30.05,14,4,19,0.15
2013-1-25,48.8,45.0,41.8,43.2,40.4,36.5,90,84,73,30.06,29.92,15,5,15,0.06
2013-1-26,43.6,41.6,39.7,38.8,37.1,35.5,88,84,80,30.03,29.88,21,7,21,0.21
2013-1-27,41.6,40.3,39.6,37.1,35.9,34.8,87,84,81,30.06,29.98,22,6,22,0.03
2013-1-28,41.8,40.1,38.3,38.8,36.8,35.0,89,88,86,30.09,30.00,14,5,14,0.27
2013-1-29,46.5,44.0,41.3,43.4,40.9,38.3,90,89,86,30.34,30.08,23,5,23,0.35
2013-1-30,47.2,45.8,43.7,44.7,43.2,40.6,91,91,89,30.38,30.31,16,3,16,0.21
2013-1-31,48.8,46.1,45.0,43.7,42.9,42.2,91,89,80,30.39,30.29,16,5,23,0.11
2013-2-1,48.3,44.7,40.4,43.1,41.4,37.3,92,88,80,30.41,30.32,14,2,14,0.01
2013-2-2,42.7,40.3,38.4,39.0,37.2,35.6,91,89,84,30.38,30.26,13,2,13,0.00
2013-2-3,47.4,43.3,38.7,41.4,39.6,36.0,95,87,78,30.30,30.20,14,4,14,0.08
2013-2-4,49.1,45.7,43.4,41.8,40.1,39.2,87,81,72,30.21,29.88,15,4,15,0.00
2013-2-5,49.5,45.4,43.1,41.9,40.0,38.7,89,81,70,29.92,29.83,27,8,27,0.12
2013-2-6,49.3,44.7,42.5,40.9,38.9,36.9,86,80,67,30.05,29.79,22,6,23,0.14
2013-2-7,46.7,42.7,37.3,39.4,35.8,33.5,87,77,61,30.19,29.79,29,6,29,0.08
2013-2-8,44.3,40.6,36.7,37.3,35.2,33.2,92,81,70,30.30,30.19,11,1,11,0.00
2013-2-9,44.7,41.6,39.6,38.3,36.7,34.6,89,83,70,30.34,30.26,9,1,9,0.01
2013-2-10,44.2,40.3,34.6,38.5,35.8,31.7,90,84,70,30.38,30.32,10,1,10,0.00
2013-2-11,46.7,43.2,40.2,39.8,38.0,36.1,91,82,70,30.36,30.32,11,2,11,0.01
2013-2-12,48.7,45.7,43.6,43.5,41.9,39.4,92,87,80,30.40,30.27,27,6,27,0.03
2013-2-13,47.4,45.2,43.8,42.8,40.3,38.7,87,83,76,30.50,30.30,18,2,21,0.01
2013-2-14,46.7,44.5,42.4,42.3,40.6,38.2,92,86,82,30.56,30.49,13,3,13,0.05
2013-2-15,51.8,44.7,39.3,43.1,40.3,36.0,90,85,70,30.55,30.18,10,2,12,0.00
2013-2-16,52.6,44.5,39.2,41.6,39.5,35.1,90,83,62,30.20,30.11,24,5,24,0.05
2013-2-17,44.6,41.1,39.6,37.7,35.3,33.7,86,80,67,30.25,30.11,13,3,13,0.03
2013-2-18,45.1,41.8,38.7,36.7,35.3,33.5,92,78,67,30.12,29.76,14,3,14,0.00
2013-2-19,47.8,41.6,35.8,37.1,34.6,32.3,88,77,57,30.01,29.74,19,2,19,0.00
2013-2-20,44.2,39.8,35.5,37.9,35.3,32.0,89,84,74,30.04,29.99,18,3,18,0.13
2013-2-21,43.2,41.5,39.2,38.4,36.8,35.3,89,83,78,30.07,30.00,27,8,27,0.05
2013-2-22,45.7,41.7,37.7,40.5,36.6,31.9,91,82,73,30.05,29.67,38,13,38,0.11
2013-2-23,48.4,42.2,38.2,37.1,34.7,32.4,85,75,58,30.37,29.89,19,4,19,0.01
2013-2-24,46.5,43.6,39.7,36.0,34.7,32.8,82,71,61,30.37,29.94,30,8,30,0.01
2013-2-25,51.1,43.3,38.5,38.0,34.5,28.2,89,72,42,30.30,29.86,38,10,38,0.11
2013-2-26,46.5,42.5,37.9,35.5,33.2,30.9,83,70,55,30.34,30.19,20,7,20,0.01
2013-2-27,46.9,43.2,40.4,41.7,38.5,35.1,89,83,72,30.31,30.20,19,2,19,0.28
2013-2-28,51.1,46.5,41.5,47.6,43.4,38.6,90,89,87,30.33,30.18,18,5,24,0.28
2013-3-1,55.9,51.9,49.4,49.2,47.4,46.0,92,85,76,30.35,30.27,29,9,29,0.14
2013-3-2,55.7,49.0,37.9,47.1,42.9,34.3,92,79,69,30.27,30.06,21,7,21,0.20
2013-3-3,47.6,39.9,35.5,35.9,33.3,31.4,89,78,57,30.31,30.19,16,3,16,0.01
2013-3-4,49.9,40.1,31.1,35.9,30.6,25.7,88,70,49,30.30,29.92,13,2,13,0.00
2013-3-5,48.6,43.3,38.5,38.5,34.1,24.9,85,70,56,29.93,29.72,11,2,11,0.00
2013-3-6,42.8,41.3,39.8,39.0,37.6,36.3,89,87,81,29.89,29.57,22,4,22,0.67
2013-3-7,49.5,43.8,39.6,41.9,38.8,36.3,90,83,65,30.09,29.89,14,3,14,0.21
2013-3-8,50.1,42.0,36.3,39.2,36.1,33.3,90,80,62,30.24,30.08,15,2,15,0.00
2013-3-9,52.9,41.8,33.0,40.7,35.5,30.0,90,79,54,30.50,30.24,10,1,10,0.00
2013-3-10,47.8,42.8,37.7,39.7,37.5,33.9,88,82,67,30.50,30.42,8,1,8,0.01
2013-3-11,50.7,45.9,40.4,43.5,40.4,36.8,94,82,67,30.45,30.15,14,2,14,0.03
2013-3-12,53.8,50.4,47.2,48.2,45.9,43.5,92,85,72,30.16,30.06,26,10,26,0.04
2013-3-13,51.0,49.9,48.8,47.6,46.2,44.9,88,87,85,30.20,30.09,27,8,27,0.15
2013-3-14,51.6,49.8,47.6,46.2,44.4,42.4,89,82,72,30.14,30.02,21,6,21,0.02
2013-3-15,57.6,51.1,47.6,48.6,45.7,43.1,89,82,69,30.21,30.13,24,7,24,0.01
2013-3-16,49.4,46.2,38.9,43.3,39.5,33.1,84,78,62,30.13,29.87,31,9,31,0.01
2013-3-17,48.4,41.3,37.8,36.2,33.8,31.2,86,75,56,30.20,29.97,23,5,23,0.01
2013-3-18,51.6,43.4,38.5,38.5,34.5,31.3,86,71,47,30.25,30.09,29,6,31,0.00
2013-3-19,52.7,42.0,35.8,40.3,34.8,30.7,89,76,48,30.23,29.59,21,2,21,0.46
2013-3-20,49.8,45.8,38.6,46.1,39.4,30.4,89,79,64,30.01,29.38,36,11,36,0.71
2013-3-21,46.4,39.7,35.7,36.0,32.8,30.7,86,77,60,30.22,30.01,18,6,18,0.02
2013-3-22,45.4,38.1,34.0,34.3,30.3,26.2,88,74,49,30.38,30.22,13,2,13,0.04
2013-3-23,48.5,39.7,33.6,32.0,28.8,25.3,86,66,41,30.40,30.30,11,2,11,0.00
2013-3-24,53.1,41.6,31.8,34.3,30.5,27.7,87,66,38,30.31,30.13,7,1,7,0.00
2013-3-25,58.5,47.1,35.7,36.2,30.1,25.4,77,53,34,30.14,29.93,13,2,13,0.00
2013-3-26,58.9,49.9,44.6,40.0,37.0,32.7,76,62,44,30.02,29.96,10,2,10,0.00
2013-3-27,55.1,48.4,44.6,46.0,40.4,35.0,87,74,58,29.99,29.94,8,1,8,0.03
2013-3-28,60.2,50.6,43.8,47.4,43.8,40.0,92,78,55,30.15,29.98,11,2,11,0.02
2013-3-29,61.4,51.8,44.5,45.8,43.0,40.6,88,73,49,30.25,30.14,12,2,12,0.00
2013-3-30,60.8,50.9,42.9,47.1,42.6,39.6,90,74,57,30.26,30.08,12,4,18,0.00
2013-3-31,64.9,54.8,44.8,46.3,41.3,38.8,83,61,45,30.08,29.91,19,3,19,0.00
2013-4-1,61.0,51.8,46.7,47.3,44.5,41.1,87,76,59,30.16,29.96,18,6,18,0.00
2013-4-2,56.6,51.4,48.3,45.7,43.5,41.9,82,74,66,30.20,30.15,15,4,15,0.00
2013-4-3,60.0,51.8,44.7,46.2,43.1,40.8,88,73,53,30.19,29.95,10,2,10,0.00
2013-4-4,54.8,50.9,48.3,50.6,46.3,42.1,92,84,75,29.95,29.64,28,4,28,0.41
2013-4-5,54.6,51.0,47.3,48.3,46.2,43.4,89,84,74,29.86,29.72,26,8,26,0.74
2013-4-6,51.7,47.1,44.4,44.9,42.1,39.4,89,83,72,29.92,29.69,29,9,30,0.53
2013-4-7,46.2,42.9,39.3,42.8,39.3,35.8,92,87,84,29.89,29.51,16,2,16,0.79
2013-4-8,54.7,47.1,41.6,44.4,41.1,38.1,89,80,63,30.27,29.89,12,4,12,0.04
2013-4-9,53.4,48.6,43.6,42.9,39.9,38.4,85,72,60,30.35,30.18,16,6,16,0.01
2013-4-10,59.0,51.6,47.5,49.8,43.7,39.8,92,75,60,30.25,29.93,26,6,26,0.24
2013-4-11,52.3,46.9,43.9,42.8,38.5,34.2,89,73,52,30.31,30.19,15,3,15,0.09
2013-4-12,45.2,42.8,40.3,41.2,37.3,34.5,89,81,69,30.19,29.67,25,6,26,0.14
2013-4-13,48.7,41.4,36.3,42.5,36.4,32.2,89,83,68,30.01,29.75,26,5,26,0.12
2013-4-14,51.7,44.1,38.2,40.3,36.0,29.8,94,75,43,30.02,29.93,14,3,14,0.03
2013-4-15,53.5,45.3,39.6,39.9,37.1,34.8,92,74,52,30.19,29.95,19,3,19,0.01
2013-4-16,55.2,45.2,36.1,40.8,35.8,30.6,90,71,43,30.40,30.19,19,1,19,0.00
2013-4-17,57.9,48.0,38.4,40.9,36.8,32.7,80,66,43,30.46,30.40,15,3,15,0.00
2013-4-18,50.5,46.6,43.0,44.9,40.5,36.3,88,79,69,30.46,30.20,26,7,26,0.00
2013-4-19,53.1,49.8,47.2,49.8,46.4,43.9,92,88,85,30.20,30.06,27,6,27,0.00
2013-4-20,56.5,49.0,45.4,47.9,44.0,41.4,89,83,66,30.28,30.19,15,4,15,0.00
2013-4-21,53.5,46.5,42.2,43.8,40.1,35.0,88,79,61,30.37,30.23,19,4,19,0.01
2013-4-22,57.1,48.1,38.9,40.3,34.6,23.8,88,63,28,30.54,30.37,19,4,19,0.97
2013-4-23,60.4,49.2,36.9,38.6,33.6,27.1,86,57,33,30.43,30.25,9,2,20,0.00
2013-4-24,67.1,54.5,40.6,42.4,37.1,32.4,85,55,30,30.32,30.06,7,2,15,0.00
2013-4-25,70.1,57.1,43.3,44.7,38.4,32.5,75,51,34,30.13,30.04,5,2,11,0.00
2013-4-26,65.3,54.2,45.4,49.4,44.8,40.9,88,71,50,30.26,30.14,12,3,12,0.00
2013-4-27,55.5,52.8,50.5,45.8,42.9,38.1,82,69,57,30.21,30.15,27,7,27,0.00
2013-4-28,58.3,50.8,46.8,46.6,42.9,38.4,84,75,56,30.22,29.94,26,6,26,0.00
2013-4-29,55.7,48.0,42.8,45.3,38.4,32.9,92,71,45,30.16,29.90,15,4,18,0.20
2013-4-30,53.4,45.7,38.4,37.1,33.4,30.3,84,63,45,30.44,30.16,11,2,11,0.01
2013-5-1,61.4,49.2,35.8,38.9,34.3,28.5,88,59,30,30.59,30.44,15,3,15,0.00
2013-5-2,63.3,53.4,43.2,43.7,38.7,33.7,79,58,43,30.55,30.37,19,3,19,0.00
2013-5-3,65.5,56.7,46.3,48.5,43.8,37.0,79,63,48,30.39,30.22,19,3,19,0.00
2013-5-4,72.1,61.8,51.4,50.1,44.2,38.0,74,54,35,30.23,30.00,22,4,22,0.00
2013-5-5,76.7,65.6,52.5,48.8,44.7,39.4,70,48,29,30.00,29.77,19,3,19,0.00
2013-5-6,82.0,67.2,52.1,50.7,46.8,41.9,74,50,30,29.84,29.75,14,2,14,0.00
2013-5-7,69.5,58.5,50.8,53.5,49.1,46.1,84,72,55,30.00,29.81,16,6,16,0.00
2013-5-8,64.3,55.4,50.6,51.4,47.9,45.6,84,76,61,30.15,30.00,14,4,14,0.00
2013-5-9,67.4,55.3,48.5,53.7,48.2,44.7,88,78,51,30.23,30.12,9,1,9,0.00
2013-5-10,74.7,60.7,47.8,54.7,49.0,44.4,89,68,40,30.21,30.11,10,2,10,0.00
2013-5-11,79.4,63.4,52.7,54.7,48.5,42.3,78,60,39,30.17,29.98,13,3,13,0.00
2013-5-12,68.0,61.3,57.2,55.9,53.3,49.5,86,75,60,30.09,30.01,19,5,19,0.08
2013-5-13,62.7,55.6,48.5,53.8,48.5,39.3,87,77,60,30.18,29.93,37,8,37,0.22
2013-5-14,63.8,54.3,47.1,44.6,41.7,38.1,80,64,41,30.23,30.11,14,3,14,0.00
2013-5-15,62.0,53.4,45.8,49.0,44.7,38.0,86,73,42,30.12,30.01,16,2,16,0.02
2013-5-16,66.8,58.6,52.3,52.3,49.4,46.7,87,73,52,30.02,29.87,14,3,14,0.00
2013-5-17,63.1,56.4,52.0,49.5,47.1,44.6,84,72,54,30.06,29.94,19,6,19,0.00
2013-5-18,60.2,55.2,50.8,46.8,45.1,43.2,82,69,54,30.28,30.05,15,4,15,0.00
2013-5-19,62.1,56.2,50.9,50.1,46.9,44.5,81,71,56,30.40,30.28,12,2,12,0.00
2013-5-20,66.3,54.1,45.3,49.2,45.4,41.4,89,74,49,30.35,29.90,16,3,16,0.00
2013-5-21,55.4,49.3,45.0,47.6,44.0,41.4,88,82,66,29.91,29.78,21,4,21,0.34
2013-5-22,53.1,47.9,44.6,45.4,42.9,41.0,88,83,71,29.94,29.84,18,5,18,0.01
2013-5-23,56.2,48.9,44.3,46.8,42.7,40.1,88,79,63,30.02,29.93,19,3,19,0.03
2013-5-24,61.9,52.9,45.2,47.1,44.4,41.3,92,74,52,30.05,29.97,15,4,15,0.01
2013-5-25,62.4,54.8,49.7,47.7,45.4,43.3,83,71,50,30.04,29.96,14,4,14,0.00
2013-5-26,61.7,54.3,49.0,52.5,48.2,45.0,89,80,65,30.00,29.94,15,3,15,0.07
2013-5-27,58.0,54.7,50.9,53.4,50.0,46.3,89,84,79,29.97,29.71,15,3,15,0.38
2013-5-28,60.0,54.8,51.2,51.5,47.6,44.6,86,77,66,29.88,29.77,18,6,18,0.00
2013-5-29,60.2,53.0,48.6,49.5,46.9,44.9,92,80,63,29.97,29.69,21,3,21,0.10
2013-5-30,61.2,54.2,48.8,47.3,45.1,43.2,82,72,56,30.24,29.96,22,7,22,0.00
2013-5-31,64.9,57.3,50.0,48.7,44.8,39.9,84,65,41,30.35,30.24,10,3,12,0.00
2013-6-1,69.3,59.0,51.2,49.3,46.1,43.6,80,63,43,30.25,30.05,16,3,16,0.00
2013-6-2,67.1,60.4,52.6,51.3,48.4,44.1,84,65,52,30.09,30.04,15,3,15,0.00
2013-6-3,70.1,58.5,50.8,54.2,49.4,46.9,87,73,51,30.12,30.06,12,4,12,0.00
2013-6-4,73.9,63.2,50.8,54.7,49.6,44.0,86,63,43,30.13,30.02,15,3,15,0.00
2013-6-5,73.7,63.7,53.2,57.9,51.5,45.1,81,65,51,30.09,30.03,15,3,15,0.00
2013-6-6,75.6,64.4,51.9,53.7,49.1,42.9,87,60,36,30.06,30.00,14,2,14,0.00
2013-6-7,66.0,60.3,55.0,54.7,48.4,43.1,76,65,49,30.15,30.02,19,4,19,0.00
2013-6-8,65.8,58.5,52.9,50.5,47.2,44.5,75,66,55,30.18,30.10,14,2,14,0.00
2013-6-9,64.3,56.7,51.8,49.9,46.1,42.9,79,68,55,30.12,30.02,19,2,19,0.00
2013-6-10,67.8,58.3,48.3,49.7,45.8,42.0,80,64,48,30.04,29.88,12,2,12,0.00
2013-6-11,64.0,56.2,51.3,51.2,45.6,43.1,83,68,51,30.10,29.93,21,6,21,0.05
2013-6-12,66.0,58.0,51.4,48.1,46.2,44.3,80,66,47,30.14,30.09,19,6,19,0.00
2013-6-13,66.0,58.4,52.2,50.4,47.7,46.0,81,69,49,30.22,30.13,13,3,13,0.00
2013-6-14,64.5,57.7,53.3,49.8,46.9,44.9,79,68,52,30.23,30.05,15,5,15,0.00
2013-6-15,70.4,60.8,49.4,53.6,49.6,45.3,87,68,46,30.06,29.92,16,2,16,0.00
2013-6-16,72.5,62.4,54.0,56.4,51.5,48.1,85,68,54,30.08,29.99,16,4,16,0.00
2013-6-17,74.6,63.3,56.0,54.1,50.4,47.4,79,65,39,30.09,29.89,21,4,21,0.00
2013-6-18,71.2,62.7,54.8,52.1,48.4,42.5,84,62,37,29.98,29.87,21,5,21,0.00
2013-6-19,64.7,59.1,54.0,52.0,49.0,47.1,82,70,55,30.00,29.91,14,4,14,0.00
2013-6-20,60.5,56.0,52.2,52.8,49.7,47.1,89,79,69,30.11,29.94,16,4,16,0.25
2013-6-21,67.0,58.5,52.3,53.1,49.9,47.3,92,75,51,30.17,30.10,10,2,10,0.08
2013-6-22,75.1,63.9,52.0,54.2,50.7,48.0,88,65,40,30.12,29.85,14,3,14,0.00
2013-6-23,69.5,63.2,58.2,59.8,54.8,49.6,87,74,65,29.85,29.59,7,1,7,0.13
2013-6-24,66.1,60.7,54.8,56.6,53.5,51.0,89,78,61,29.70,29.57,22,6,23,0.11
2013-6-25,72.0,61.4,56.0,56.8,54.2,51.0,89,78,52,29.85,29.67,25,4,25,0.48
2013-6-26,68.8,61.8,56.5,59.0,55.3,52.7,89,80,64,30.08,29.84,16,3,16,0.04
2013-6-27,67.8,63.5,59.8,60.9,58.0,53.4,89,82,77,30.19,30.04,9,1,9,0.06
2013-6-28,84.3,70.3,58.4,64.6,59.6,54.9,89,70,45,30.20,30.04,11,2,11,0.00
2013-6-29,82.4,70.9,62.9,63.8,59.3,55.8,85,68,48,30.10,29.98,11,2,11,0.00
2013-6-30,86.4,73.6,59.0,65.5,59.5,52.5,80,63,47,30.01,29.84,11,2,13,0.00
2013-7-1,83.0,73.5,62.6,64.6,59.8,56.1,81,63,51,30.01,29.90,11,2,11,0.00
2013-7-2,78.0,68.7,59.0,60.3,55.1,49.2,84,63,43,30.10,30.01,18,3,18,0.00
2013-7-3,73.8,66.0,59.0,55.3,49.8,45.0,68,56,41,30.14,30.04,13,3,14,0.00
2013-7-4,69.5,61.6,57.2,53.6,51.1,48.0,81,69,55,30.13,30.02,14,3,14,0.00
2013-7-5,71.9,63.3,53.9,55.3,52.8,48.9,86,70,54,30.03,29.95,13,3,13,0.00
2013-7-6,75.5,65.6,55.4,55.9,52.9,49.5,87,65,42,29.98,29.86,15,3,15,0.00
2013-7-7,74.1,63.6,56.0,59.2,54.7,50.6,87,74,58,29.95,29.88,14,4,14,0.00
2013-7-8,76.3,63.8,55.1,58.2,53.7,50.2,84,71,50,30.10,29.94,13,4,14,0.00
2013-7-9,78.7,67.4,55.7,58.6,54.2,50.1,87,64,44,30.11,29.99,14,2,14,0.00
2013-7-10,68.8,61.3,55.7,55.4,51.8,48.4,84,71,60,30.07,29.94,15,4,15,0.00
2013-7-11,67.9,59.9,54.9,50.1,47.5,45.4,75,64,49,30.09,29.99,16,3,16,0.00
2013-7-12,57.3,53.9,52.9,46.8,45.5,44.7,75,73,66,30.02,30.01,11,2,11,0.00
2013-7-13,73.8,61.9,49.4,51.4,47.0,43.6,82,60,38,30.20,30.10,9,2,15,0.00
2013-7-14,77.9,65.0,51.0,51.9,47.9,44.2,85,56,34,30.13,29.99,13,3,14,0.00
2013-7-15,76.1,66.7,55.0,54.2,48.8,43.8,77,54,36,30.05,29.89,20,4,20,0.00
2013-7-16,80.6,70.8,59.0,55.8,49.8,44.3,62,48,38,29.90,29.80,18,3,18,0.00
2013-7-17,70.3,64.7,59.8,55.1,53.6,49.7,79,68,53,30.19,29.86,22,6,22,0.00
2013-7-18,74.7,64.4,57.9,57.2,53.8,51.7,81,70,53,30.23,30.12,12,2,12,0.00
2013-7-19,76.4,64.0,54.4,59.4,54.7,50.1,87,73,54,30.17,30.04,11,2,11,0.00
2013-7-20,73.3,61.2,54.1,59.1,53.8,50.0,89,78,57,30.09,29.95,11,2,11,0.00
2013-7-21,74.1,61.7,54.3,59.1,54.2,50.7,89,77,58,29.98,29.90,12,3,12,0.00
2013-7-22,75.9,63.3,54.9,58.9,54.6,51.4,89,74,53,30.07,29.94,11,3,11,0.00
2013-7-23,80.0,65.9,54.0,58.8,52.8,49.0,88,65,34,30.07,29.96,11,3,16,0.00
2013-7-24,80.7,67.8,54.8,56.7,52.1,46.0,86,60,33,30.05,29.99,12,2,12,0.00
2013-7-25,80.5,66.8,53.1,56.5,52.3,48.7,87,62,39,30.10,30.02,13,2,13,0.00
2013-7-26,80.3,67.6,53.9,55.3,50.8,45.5,86,57,32,30.15,30.06,15,2,15,0.00
2013-7-27,75.3,63.4,54.6,53.6,50.2,46.3,82,64,42,30.16,29.99,14,3,14,0.00
2013-7-28,66.0,57.6,53.1,54.0,50.4,48.6,86,77,64,30.02,29.99,18,5,18,0.00
2013-7-29,73.7,62.8,55.2,55.0,51.9,49.3,82,69,52,30.01,29.95,6,3,12,0.00
2013-7-30,74.5,64.6,54.5,56.7,53.6,50.2,86,68,52,30.13,30.00,7,2,13,0.00
2013-7-31,69.3,60.4,55.0,58.5,54.3,50.9,92,81,67,30.12,29.99,8,2,11,0.00
2013-8-1,68.3,60.4,54.5,55.8,52.7,50.4,89,76,62,30.06,30.03,19,5,19,0.00
2013-8-2,59.9,58.9,57.5,55.8,54.1,52.2,88,84,78,30.13,30.05,14,3,16,0.09
2013-8-3,71.9,63.2,57.7,58.5,55.7,53.8,90,78,59,30.13,30.05,12,2,12,0.00
2013-8-4,77.4,66.0,54.7,59.5,55.7,50.9,89,71,51,30.06,29.94,19,3,19,0.00
2013-8-5,80.8,68.4,56.0,59.8,56.1,51.7,89,67,44,30.01,29.92,11,2,12,0.00
2013-8-6,81.7,66.7,53.7,59.1,53.1,49.3,88,64,35,30.01,29.91,10,2,10,0.00
2013-8-7,81.2,66.7,54.6,58.4,54.0,50.2,88,66,39,30.02,29.93,12,2,12,0.00
2013-8-8,78.2,65.3,56.8,59.7,55.0,52.3,87,71,51,30.04,29.93,12,3,12,0.00
2013-8-9,79.2,67.0,55.3,58.4,54.9,51.2,87,67,45,29.95,29.83,13,1,13,0.00
2013-8-10,74.4,64.4,57.3,61.2,57.4,53.6,89,78,62,30.01,29.89,18,2,18,0.15
2013-8-11,73.2,63.3,56.5,57.1,53.3,51.2,83,71,52,30.06,29.98,11,3,12,0.00
2013-8-12,75.1,64.3,57.4,56.8,53.9,52.3,85,70,47,30.08,30.00,13,5,13,0.00
2013-8-13,78.3,65.6,56.0,57.3,53.8,51.2,85,67,45,30.10,29.92,11,4,11,0.00
2013-8-14,60.3,60.1,60.1,51.8,51.8,51.8,74,74,74,29.94,29.93,5,5,5,0.00
2013-8-15,68.4,64.8,61.1,62.3,60.0,56.9,87,84,79,29.99,29.92,5,3,10,0.00
2013-8-16,81.3,67.6,59.8,62.0,57.3,49.2,90,72,33,30.00,29.94,5,2,12,0.01
2013-8-17,75.5,67.3,61.4,60.0,56.1,52.6,78,68,56,30.07,30.00,15,4,15,0.00
2013-8-18,76.0,64.9,58.1,59.2,54.4,50.1,84,69,54,30.12,30.07,18,4,18,0.00
2013-8-19,76.0,65.2,58.3,58.1,53.3,49.2,81,66,51,30.11,30.06,18,4,18,0.00
2013-8-20,72.7,64.7,57.9,54.7,50.5,47.2,77,61,44,30.17,30.07,13,6,18,0.00
2013-8-21,72.2,61.0,53.6,53.8,49.2,46.4,79,66,51,30.09,30.02,15,6,15,0.00
2013-8-22,78.7,67.7,55.1,56.1,52.4,49.2,81,60,43,29.94,29.80,6,2,15,0.00
2013-8-23,72.8,65.8,60.4,56.8,54.6,53.0,81,68,54,29.88,29.82,9,5,20,0.00
2013-8-24,72.4,64.3,59.4,55.3,53.9,51.0,80,70,51,29.91,29.85,7,5,14,0.00
2013-8-25,68.8,63.0,55.0,56.1,52.4,49.9,83,69,55,29.94,29.87,6,2,12,0.00
2013-8-26,72.7,64.0,59.0,57.6,54.5,50.7,82,72,49,29.95,29.85,9,2,19,0.00
2013-8-27,75.6,66.7,61.1,58.7,56.0,51.7,81,69,54,29.95,29.80,6,3,11,0.00
2013-8-28,76.2,69.5,59.0,62.6,59.1,53.7,90,70,56,29.89,29.83,10,2,10,0.20
2013-8-29,71.0,65.8,63.2,64.5,61.2,57.1,89,85,74,30.01,29.84,15,2,15,0.34
2013-8-30,75.9,66.6,60.7,59.7,55.7,52.0,86,69,46,30.15,30.00,13,3,13,0.00
2013-8-31,74.1,64.3,54.8,58.2,54.7,51.0,89,72,56,30.08,29.84,11,3,15,0.00
2013-9-1,79.2,66.0,57.4,60.2,55.9,52.6,88,72,49,29.89,29.79,11,3,11,0.00
2013-9-2,79.0,67.8,59.7,59.6,55.7,53.3,83,67,46,29.94,29.85,11,3,11,0.00
2013-9-3,71.8,64.0,60.6,61.4,58.2,55.4,89,82,61,30.02,29.93,8,3,8,0.13
2013-9-4,69.3,62.7,57.9,60.2,57.0,54.3,89,82,69,30.05,29.99,12,1,12,0.00
2013-9-5,65.8,60.9,58.3,59.2,56.4,54.5,90,85,75,30.04,29.92,15,1,15,0.08
2013-9-6,69.0,62.4,59.5,62.1,58.3,56.6,91,87,76,30.11,29.93,0,0,0,0.24
2013-9-7,69.9,63.3,59.0,59.7,57.4,54.2,88,81,67,30.10,30.01,0,0,0,0.02
2013-9-8,75.4,64.4,55.7,60.0,56.3,52.5,91,76,53,30.11,30.02,0,0,0,0.02
2013-9-9,72.9,62.1,56.2,60.0,55.8,52.9,90,81,61,30.07,29.98,0,0,0,0.02
2013-9-10,72.7,63.4,54.5,61.1,56.4,51.3,90,79,65,30.00,29.88,0,0,0,0.01
2013-9-11,83.8,70.0,58.0,62.5,58.0,53.5,88,67,47,29.94,29.86,0,0,0,0.01
2013-9-12,75.8,64.5,58.5,62.2,57.4,55.0,90,79,61,30.00,29.89,0,0,0,0.01
2013-9-13,64.4,61.2,58.4,58.7,57.0,54.5,90,86,81,29.97,29.87,0,0,0,0.01
2013-9-14,65.8,61.2,58.1,59.1,56.5,54.5,88,85,77,29.88,29.73,0,0,0,0.56
2013-9-15,63.3,59.0,55.5,59.2,55.6,52.6,91,89,84,29.81,29.71,15,2,15,0.22
2013-9-16,67.2,60.6,57.6,58.3,55.1,51.5,87,82,70,29.92,29.80,21,5,21,0.00
2013-9-17,61.1,58.0,55.2,53.2,51.3,49.3,85,78,69,29.93,29.86,10,0,10,0.00
2013-9-18,66.3,58.0,53.1,52.0,50.1,47.3,88,76,53,30.08,29.93,12,3,16,0.00
2013-9-19,75.1,60.6,47.9,53.2,48.9,44.2,92,68,38,30.04,29.75,10,1,10,0.00
2013-9-20,71.3,61.8,55.4,54.3,50.8,45.8,87,68,52,29.76,29.58,18,4,18,0.09
2013-9-21,66.6,59.3,54.8,54.7,52.3,50.4,88,78,60,29.72,29.64,16,4,18,0.01
2013-9-22,59.8,57.0,54.2,54.1,51.2,48.1,88,81,66,29.73,29.56,30,8,30,0.43
2013-9-23,59.7,55.6,53.4,52.5,50.1,46.2,88,82,74,29.97,29.72,24,6,24,0.28
2013-9-24,61.1,54.0,50.1,49.0,47.4,45.7,88,79,58,29.96,29.83,16,4,16,0.00
2013-9-25,58.1,51.7,47.8,48.8,46.3,43.8,89,82,63,30.03,29.85,18,2,18,0.04
2013-9-26,60.0,52.0,45.2,49.2,45.7,41.9,90,80,62,30.12,30.02,11,2,11,0.00
2013-9-27,56.4,53.8,51.1,50.5,48.4,45.3,87,82,75,30.11,29.84,24,7,24,0.08
2013-9-28,59.0,54.7,51.0,55.8,51.1,47.3,90,88,84,29.85,29.32,32,8,32,1.88
2013-9-29,57.4,52.8,51.4,49.7,47.6,45.6,88,82,70,29.55,29.15,35,10,35,0.71
2013-9-30,56.1,51.7,48.8,49.3,46.0,42.5,87,81,71,29.91,29.42,26,10,31,0.02
2013-10-1,56.7,50.9,47.2,47.1,44.7,42.6,89,80,62,30.10,29.90,26,7,26,0.14
2013-10-2,52.9,50.0,48.3,46.9,45.4,44.2,89,84,78,30.17,30.05,21,4,21,0.25
2013-10-3,56.6,50.2,45.0,46.6,44.6,41.4,89,82,64,30.45,30.17,9,1,9,0.00
2013-10-4,60.9,50.1,42.7,47.4,43.9,39.4,90,80,57,30.48,30.34,9,1,9,0.00
2013-10-5,64.5,52.9,44.9,48.9,45.2,41.8,92,77,49,30.36,30.13,11,1,11,0.00
2013-10-6,69.5,55.8,45.5,50.6,46.5,42.2,94,73,44,30.13,29.87,20,4,20,0.01
2013-10-7,59.6,54.3,52.0,49.3,47.6,44.5,88,78,60,30.00,29.88,24,8,24,0.10
2013-10-8,54.6,50.3,45.0,47.8,44.3,40.8,87,80,64,30.07,29.96,16,2,16,0.04
2013-10-9,55.8,48.1,42.4,45.9,42.4,39.4,90,81,62,30.14,29.95,9,1,9,0.00
2013-10-10,57.0,51.1,46.8,47.6,45.2,42.0,87,80,65,30.07,29.93,11,1,11,0.00
2013-10-11,54.1,50.4,47.9,48.1,46.3,44.0,89,86,76,30.14,30.06,6,0,6,0.09
2013-10-12,54.4,49.8,45.2,48.2,45.4,41.6,92,85,73,30.22,30.06,14,2,14,0.03
2013-10-13,56.0,48.3,43.5,46.0,43.0,40.5,92,82,60,30.36,30.21,14,1,14,0.00
2013-10-14,56.9,47.2,42.1,46.8,42.5,38.8,91,84,61,30.43,30.36,11,1,11,0.00
2013-10-15,56.8,48.3,42.5,48.0,43.9,39.5,91,85,69,30.39,30.18,9,1,9,0.00
2013-10-16,49.4,47.5,45.2,46.0,44.1,42.2,90,88,86,30.18,30.15,9,0,9,0.00
2013-10-17,55.5,48.7,45.4,48.0,44.4,42.1,88,85,74,30.27,30.20,6,0,9,0.00
2013-10-18,51.7,46.8,43.9,47.0,43.6,40.8,91,89,83,30.25,30.15,10,1,10,0.00
2013-10-19,48.1,46.4,44.0,45.6,43.7,41.1,91,90,88,30.20,30.14,8,1,8,0.01
2013-10-20,49.2,47.2,45.6,45.5,44.0,42.5,90,89,86,30.20,30.14,9,1,9,0.00
2013-10-21,50.4,47.7,45.8,46.7,44.6,43.0,91,89,86,30.17,30.10,9,1,9,0.00
2013-10-22,50.7,47.5,45.8,47.0,44.6,42.5,91,90,86,30.12,30.03,10,1,10,0.00
2013-10-23,54.1,47.1,44.0,48.9,44.0,41.3,95,89,80,30.06,29.98,6,0,6,0.01
2013-10-24,47.8,46.3,43.8,45.3,43.7,40.8,91,91,89,30.12,30.02,7,0,7,0.01
2013-10-25,51.7,48.0,45.0,47.8,44.9,42.0,91,89,84,30.32,30.12,9,1,9,0.01
2013-10-26,52.9,49.4,45.2,46.6,44.4,42.3,91,83,75,30.33,30.19,15,1,15,0.00
2013-10-27,54.3,49.6,45.8,46.9,44.0,41.4,90,81,69,30.20,29.90,18,4,27,0.19
2013-10-28,54.6,50.2,43.9,43.6,35.9,31.7,87,59,42,29.94,29.89,27,5,27,0.00
2013-10-29,53.8,44.4,36.5,39.4,36.0,33.0,88,73,50,30.04,29.94,11,1,11,0.00
2013-10-30,54.6,47.9,40.5,45.3,39.2,34.6,84,72,63,30.12,30.03,23,5,23,0.00
2013-10-31,54.4,50.9,48.6,48.6,45.8,41.5,87,83,71,30.26,30.08,21,4,23,0.00
2013-11-1,58.2,53.5,50.9,49.2,47.6,45.4,88,80,67,30.27,29.83,9,2,9,0.00
2013-11-2,53.4,49.5,44.1,48.4,43.0,37.0,90,79,64,29.88,29.47,44,10,44,0.75
2013-11-3,50.2,43.9,40.8,40.6,38.3,35.7,87,81,64,30.11,29.88,10,5,12,0.00
2013-11-4,47.5,42.8,37.4,40.2,36.8,34.2,90,80,64,30.20,30.05,8,0,8,0.03
2013-11-5,50.8,46.5,43.5,46.6,42.9,39.1,90,87,83,30.26,30.01,15,2,15,0.03
2013-11-6,51.3,47.3,42.8,45.3,42.7,39.5,92,84,73,30.32,30.02,13,0,13,0.04
2013-11-7,50.2,48.2,47.1,47.4,44.7,43.0,92,87,79,30.03,29.71,29,8,29,1.08
2013-11-8,52.2,48.4,45.6,43.8,42.3,41.0,85,79,70,30.16,29.96,19,5,19,0.00
2013-11-9,49.6,44.9,39.8,43.0,40.6,36.8,90,85,74,30.15,30.07,8,1,8,0.07
2013-11-10,48.5,46.0,44.0,44.0,42.3,41.1,90,87,82,30.15,30.09,15,3,15,0.05
2013-11-11,55.7,47.6,43.5,45.7,42.5,40.1,92,83,63,30.16,30.00,7,1,10,0.00
2013-11-12,56.8,52.0,46.4,51.1,46.9,41.4,90,83,66,30.35,30.02,22,6,22,0.10
2013-11-13,54.2,51.7,48.8,47.8,46.5,43.9,88,82,76,30.43,30.30,24,4,24,0.00
2013-11-14,48.8,46.3,42.0,44.8,42.9,39.0,90,88,83,30.31,30.05,11,1,11,0.00
2013-11-15,47.9,44.8,42.4,44.4,40.9,38.1,90,86,81,30.06,29.32,33,7,33,0.10
2013-11-16,47.7,43.6,39.2,42.0,36.9,34.9,89,77,66,29.77,29.34,20,6,20,0.00
2013-11-17,50.7,46.8,42.8,44.9,41.7,36.2,86,83,77,29.90,29.77,29,9,29,0.00
2013-11-18,51.1,48.7,46.9,48.3,45.4,42.4,90,88,82,29.90,29.54,26,6,26,0.70
2013-11-19,51.5,43.2,37.1,48.7,37.0,23.7,90,79,54,30.07,29.54,24,4,24,0.15
2013-11-20,40.9,36.2,31.8,29.5,26.5,24.2,82,68,55,30.51,30.07,15,3,20,0.00
2013-11-21,41.1,34.1,29.7,27.9,25.9,23.9,86,72,56,30.67,30.51,8,2,11,0.00
2013-11-22,42.5,35.8,30.4,30.9,27.8,24.6,85,73,58,30.66,30.45,13,2,13,0.00
2013-11-23,47.0,38.8,32.0,36.9,32.2,26.2,85,77,63,30.45,30.19,12,2,12,0.00
2013-11-24,46.4,39.3,34.0,39.7,35.0,30.6,92,85,72,30.26,30.17,10,1,10,0.00
2013-11-25,49.7,40.1,33.5,40.7,36.0,30.9,91,86,65,30.32,30.25,8,0,8,0.00
2013-11-26,49.7,42.8,35.9,41.2,36.5,33.0,91,80,58,30.27,30.09,9,1,9,0.00
2013-11-27,51.5,45.3,38.9,43.1,39.0,34.1,88,79,71,30.10,29.96,10,1,10,0.00
2013-11-28,43.7,39.7,36.0,41.2,37.1,33.1,91,90,87,30.18,30.02,6,0,6,0.00
2013-11-29,46.4,43.6,39.1,42.8,40.2,36.4,95,88,83,30.32,30.17,11,2,11,0.00
2013-11-30,49.4,46.7,44.2,43.8,42.0,40.6,89,84,78,30.33,30.22,23,7,23,0.02
2013-12-1,52.1,49.6,42.8,48.5,44.4,36.9,90,82,77,30.09,29.74,31,10,31,0.01
2013-12-2,42.8,38.8,35.0,37.0,32.7,28.7,92,79,62,30.06,29.80,16,3,16,0.04
2013-12-3,37.1,33.7,28.7,28.3,24.0,20.5,86,68,52,30.32,30.06,24,5,24,0.00
2013-12-4,35.4,29.8,25.7,26.9,24.1,21.9,89,79,65,30.36,30.30,9,1,9,0.00
2013-12-5,33.1,29.3,23.8,23.0,20.0,14.4,86,68,56,30.33,30.20,10,1,10,0.00
2013-12-6,31.0,26.8,22.8,15.1,9.9,6.4,60,49,39,30.24,30.14,14,3,14,0.00
2013-12-7,27.6,22.9,19.3,12.9,7.7,2.7,75,52,34,30.43,30.23,12,2,12,0.00
2013-12-8,30.0,24.6,18.3,20.4,15.6,9.3,82,68,56,30.58,30.43,9,1,9,0.00
2013-12-9,33.2,29.3,22.4,28.3,21.2,14.1,82,72,63,30.59,30.49,14,2,14,0.00
2013-12-10,38.3,35.2,32.2,33.5,29.9,24.7,85,81,73,30.50,30.42,10,2,10,0.00
2013-12-11,39.1,34.3,29.5,34.9,30.8,26.6,90,87,79,30.43,30.17,6,0,6,0.00
2013-12-12,41.6,38.2,33.3,38.3,34.1,30.4,90,85,72,30.17,30.05,18,5,18,0.13
2013-12-13,46.8,44.4,41.2,43.3,41.4,38.1,91,89,86,30.42,30.13,16,6,16,0.01
2013-12-14,47.6,45.8,43.8,42.6,41.3,40.2,87,84,81,30.43,30.31,21,6,21,0.00
2013-12-15,49.1,47.1,45.2,45.5,43.7,41.5,90,88,81,30.45,30.31,22,5,22,0.14
2013-12-16,46.7,43.5,40.2,43.0,40.6,37.7,91,89,84,30.50,30.27,7,1,7,0.00
2013-12-17,43.2,41.0,39.3,39.6,38.2,36.9,92,90,85,30.27,30.10,18,3,18,0.01
2013-12-18,43.1,40.8,36.8,39.5,35.1,29.8,90,80,61,30.16,30.02,16,3,16,0.03
2013-12-19,37.5,34.7,30.6,33.1,25.2,22.5,85,68,55,30.35,30.15,18,2,18,0.00
2013-12-20,42.9,36.2,31.1,40.4,32.1,23.9,91,85,66,30.21,29.71,37,5,37,0.23
2013-12-21,43.4,41.4,38.9,41.0,38.9,36.2,91,91,90,30.17,29.84,8,1,8,11.35
2013-12-22,47.9,46.1,43.3,45.7,43.8,40.8,92,92,91,30.29,30.15,25,5,25,16.73
2013-12-23,52.7,47.3,42.2,46.5,42.9,37.5,91,85,72,30.51,30.12,29,8,29,16.73
2013-12-24,45.0,39.9,35.5,39.5,35.8,32.6,91,86,75,30.62,30.51,8,1,10,16.72
2013-12-25,39.6,35.1,32.3,35.3,32.2,29.7,92,89,82,30.53,30.39,7,0,7,16.72
2013-12-26,39.1,36.7,34.0,36.4,34.2,31.4,91,90,89,30.42,30.21,7,1,7,16.72
2013-12-27,44.8,40.1,35.3,42.0,37.5,32.9,92,90,87,30.37,30.11,20,2,20,16.73
2013-12-28,45.0,42.0,37.0,42.4,39.3,34.3,92,90,85,30.53,30.37,6,0,6,16.73
2013-12-29,41.8,39.2,36.8,40.2,36.6,34.4,97,90,88,30.49,30.31,8,0,8,16.73
2013-12-30,42.9,40.9,38.8,40.2,37.9,36.1,92,89,85,30.32,30.13,15,2,15,16.72
2013-12-31,44.5,42.8,39.2,41.2,39.5,36.5,92,88,81,30.38,30.19,8,2,12,16.37
2014-1-1,42.7,40.9,38.8,40.0,38.3,36.4,92,90,87,30.41,30.25,8,0,8,16.73
2014-1-2,48.5,44.6,41.4,42.9,40.4,38.4,91,85,72,30.25,29.89,24,5,24,16.73